LRCK Weather Reports


Display with metric or nautical units.
time (UTC)temp
F
wind
direction
speed
MPH
gust
MPH
rain 1hr
in
rain 24hr
in
rain mn
in
humidity
%
barometer
mb
20260510043317 55 50 5.0 0.0 0.00 0.00 0.00 100 1014.0
20260510041817 55 50 3.0 0.0 0.00 0.00 0.00 100 1014.0
20260510040317 55 50 3.0 0.0 0.00 0.00 0.00 100 1014.0
20260510034817 55 70 3.0 0.0 0.00 0.00 0.00 100 1014.0
20260510033323 55 70 3.0 0.0 0.00 0.00 0.00 100 1014.0
20260510031817 55 70 5.0 0.0 0.00 0.00 0.00 100 1014.0
20260510030317 55 70 5.0 0.0 0.00 0.00 0.00 100 1014.0
20260510024814 55 80 5.0 0.0 0.00 0.00 0.00 100 1014.0
20260510023318 55 80 5.0 0.0 0.00 0.00 0.00 100 1014.0
20260510021814 55 50 5.0 0.0 0.00 0.00 0.00 100 1014.0
20260510020317 55 50 5.0 0.0 0.00 0.00 0.00 100 1014.0
20260510014817 55 50 5.0 0.0 0.00 0.00 0.00 100 1014.0
20260510013317 55 50 5.0 0.0 0.00 0.00 0.00 100 1014.0
20260510011817 55 40 6.0 0.0 0.00 0.00 0.00 100 1014.0
20260510010317 55 40 6.0 0.0 0.00 0.00 0.00 100 1014.0
20260510004817 55 40 6.0 0.0 0.00 0.00 0.00 100 1014.0
20260510003317 55 40 6.0 0.0 0.00 0.00 0.00 100 1014.0
20260510001817 55 40 7.0 0.0 0.00 0.00 0.00 100 1014.0
20260510000318 55 40 7.0 0.0 0.00 0.00 0.00 100 1014.0
20260509234817 55 20 6.0 0.0 0.00 0.00 0.00 100 1014.0
20260509233332 55 20 6.0 0.0 0.00 0.00 0.00 100 1014.0
20260509231814 55 60 3.0 0.0 0.00 0.00 0.00 100 1015.0
20260509230317 55 60 3.0 0.0 0.00 0.00 0.00 100 1015.0
20260509224817 55 120 3.0 0.0 0.00 0.00 0.00 100 1015.0
20260509223317 55 120 3.0 0.0 0.00 0.00 0.00 100 1015.0
20260509220317 55 130 3.0 0.0 0.00 0.00 0.00 100 1015.0
20260509214817 55 90 3.0 0.0 0.00 0.00 0.00 100 1015.0
20260509213317 55 90 3.0 0.0 0.00 0.00 0.00 100 1015.0
20260509211817 55 80 5.0 0.0 0.00 0.00 0.00 100 1015.0
20260509210317 55 80 5.0 0.0 0.00 0.00 0.00 100 1015.0
20260509204830 55 90 5.0 0.0 0.00 0.00 0.00 100 1015.0
20260509203317 55 90 5.0 0.0 0.00 0.00 0.00 100 1015.0
20260509201818 55 80 5.0 0.0 0.00 0.00 0.00 100 1015.0
20260509200317 55 80 5.0 0.0 0.00 0.00 0.00 100 1015.0
20260509194817 57 80 6.0 0.0 0.00 0.00 0.00 94 1015.0
20260509193317 57 80 6.0 0.0 0.00 0.00 0.00 94 1015.0
20260509191814 55 90 6.0 0.0 0.00 0.00 0.00 100 1015.0
20260509190317 55 90 6.0 0.0 0.00 0.00 0.00 100 1015.0
20260509184817 55 90 6.0 0.0 0.00 0.00 0.00 100 1015.0
20260509183318 55 90 6.0 0.0 0.00 0.00 0.00 100 1015.0
20260509181818 55 100 7.0 0.0 0.00 0.00 0.00 100 1015.0
20260509180317 55 100 7.0 0.0 0.00 0.00 0.00 100 1015.0
20260509174818 57 110 7.0 0.0 0.00 0.00 0.00 94 1015.0
20260509173319 57 110 7.0 0.0 0.00 0.00 0.00 94 1015.0
20260509171818 57 120 8.0 0.0 0.00 0.00 0.00 94 1015.0
20260509170317 57 120 8.0 0.0 0.00 0.00 0.00 94 1015.0
20260509164816 57 130 11.0 0.0 0.00 0.00 0.00 94 1015.0
20260509163317 57 130 11.0 0.0 0.00 0.00 0.00 94 1015.0
20260509161817 59 120 13.0 0.0 0.00 0.00 0.00 88 1015.0
20260509160317 59 120 13.0 0.0 0.00 0.00 0.00 88 1015.0
20260509154817 59 110 13.0 0.0 0.00 0.00 0.00 88 1015.0
20260509153317 59 110 13.0 0.0 0.00 0.00 0.00 88 1015.0
20260509151818 59 110 14.0 0.0 0.00 0.00 0.00 88 1015.0
20260509150317 59 110 14.0 0.0 0.00 0.00 0.00 88 1015.0
20260509144817 61 90 13.0 0.0 0.00 0.00 0.00 83 1015.0
20260509143317 61 90 13.0 0.0 0.00 0.00 0.00 83 1015.0
20260509141814 63 90 14.0 0.0 0.00 0.00 0.00 77 1015.0
20260509140317 63 90 14.0 0.0 0.00 0.00 0.00 77 1015.0
20260509134817 63 90 11.0 0.0 0.00 0.00 0.00 83 1015.0
20260509133317 63 90 11.0 0.0 0.00 0.00 0.00 83 1015.0
20260509131814 61 90 11.0 0.0 0.00 0.00 0.00 83 1015.0
20260509130317 61 90 11.0 0.0 0.00 0.00 0.00 83 1015.0
20260509124818 59 80 10.0 0.0 0.00 0.00 0.00 88 1015.0
20260509123317 59 80 10.0 0.0 0.00 0.00 0.00 88 1015.0
20260509121811 61 110 9.0 0.0 0.00 0.00 0.00 88 1015.0
20260509120317 61 110 9.0 0.0 0.00 0.00 0.00 88 1015.0
20260509114817 61 100 7.0 0.0 0.00 0.00 0.00 83 1015.0
20260509113317 61 100 7.0 0.0 0.00 0.00 0.00 83 1015.0
20260509111818 61 80 7.0 0.0 0.00 0.00 0.00 83 1015.0
20260509110317 61 80 7.0 0.0 0.00 0.00 0.00 83 1015.0
20260509104816 59 90 9.0 0.0 0.00 0.00 0.00 88 1015.0
20260509103318 59 90 9.0 0.0 0.00 0.00 0.00 88 1015.0
20260509101818 59 100 9.0 0.0 0.00 0.00 0.00 88 1015.0
20260509100317 59 100 9.0 0.0 0.00 0.00 0.00 88 1015.0
20260509094817 61 110 9.0 0.0 0.00 0.00 0.00 83 1015.0
20260509093316 61 110 9.0 0.0 0.00 0.00 0.00 83 1015.0
20260509091943 63 100 7.0 0.0 0.00 0.00 0.00 77 1016.0
20260509090318 63 100 7.0 0.0 0.00 0.00 0.00 77 1016.0
20260509084817 63 120 7.0 0.0 0.00 0.00 0.00 83 1016.0
20260509083317 63 120 7.0 0.0 0.00 0.00 0.00 83 1016.0
20260509081849 61 100 6.0 0.0 0.00 0.00 0.00 88 1016.0
20260509080317 61 100 6.0 0.0 0.00 0.00 0.00 88 1016.0
20260509074817 59 110 7.0 0.0 0.00 0.00 0.00 94 1016.0
20260509073317 59 110 7.0 0.0 0.00 0.00 0.00 94 1016.0
20260509071817 61 80 6.0 0.0 0.00 0.00 0.00 83 1016.0
20260509070317 61 80 6.0 0.0 0.00 0.00 0.00 83 1016.0
20260509064817 61 80 7.0 0.0 0.00 0.00 0.00 83 1015.0
20260509063318 61 80 7.0 0.0 0.00 0.00 0.00 83 1015.0
20260509061817 59 80 7.0 0.0 0.00 0.00 0.00 94 1015.0
20260509060317 0 0.0 0.0 0.00 0.00 0.00
20260509053317 55 80 5.0 0.0 0.00 0.00 0.00 100 1015.0
20260509050317 55 90 5.0 0.0 0.00 0.00 0.00 100 1015.0